This demonstration page uses our WeatherBlox Daily Observations layout. Learn more.

Left ArrowRight Arrow

40.92945, -100.16068

Hourly Observations for May 11, 2020

Temp ( °F °C ) Dew Point ( °F °C ) Humidity (%) Winds ( mph kmh ) Pressure ( in mb ) Visibility ( mi km ) Precip ( " mm )
12:15 am 00:15 Cloudy 45 7.1 30 -0.9 57 57 NE 8 13 30.4 1029 10 16.0934 0 0
12:35 am 00:35 Cloudy 45 7 31 -0.7 58 58 NE 9 15 30.4 1029 10 16.0934 0 0
12:55 am 00:55 Cloudy 44 6.8 32 -0.1 62 62 NE 8 13 30.4 1030 10 16.0934 0 0
1:15 am 01:15 Cloudy 44 6.6 32 -0.1 63 63 NE 7 11 30.4 1030 10 16.0934 0 0
1:35 am 01:35 Cloudy 44 6.4 30 -1.2 59 59 NE 7 11 30.41 1030 10 16.0934 0 0
1:55 am 01:55 Cloudy 43 6 30 -1.3 60 60 NE 8 13 30.4 1029 10 16.0934 0 0
2:15 am 02:15 Cloudy 42 5.6 30 -1.1 62 62 NE 7 11 30.41 1030 10 16.0934 0 0
2:35 am 02:35 Cloudy 42 5.6 30 -1.2 62 62 NE 6 9 30.41 1030 10 16.0934 0 0
2:55 am 02:55 Cloudy 42 5.5 30 -1 63 63 ENE 6 9 30.41 1030 10 16.0934 0 0
3:15 am 03:15 Cloudy 42 5.6 29 -1.5 61 61 ENE 5 7 30.41 1030 10 16.0934 0 0
3:35 am 03:35 Cloudy 42 5.3 30 -1.3 63 63 NE 7 11 30.41 1030 10 16.0934 0 0
3:55 am 03:55 Cloudy 41 4.9 30 -1 66 66 NE 6 9 30.41 1030 10 16.0934 0 0
4:15 am 04:15 Cloudy 41 5 31 -0.7 67 67 NE 7 11 30.41 1030 10 16.0934 0 0
4:35 am 04:35 Cloudy 41 4.8 29 -1.4 65 65 ENE 8 13 30.41 1030 10 16.0934 0 0
4:55 am 04:55 Cloudy 40 4.7 29 -1.9 63 63 ENE 10 17 30.41 1030 10 16.0934 0 0
5:15 am 05:15 Cloudy 40 4.5 29 -1.8 64 64 ENE 10 17 30.41 1030 10 16.0934 0 0
5:35 am 05:35 Cloudy 40 4.2 29 -1.5 67 67 E 7 11 30.43 1030 10 16.0934 0 0
5:55 am 05:55 Cloudy 40 4.2 29 -1.6 66 66 E 6 9 30.43 1030 10 16.0934 0 0
6:15 am 06:15 Cloudy 39 4 30 -1.3 69 69 E 7 11 30.43 1030 10 16.0934 0 0
6:35 am 06:35 Cloudy 39 4.1 30 -1.2 69 69 E 7 11 30.43 1030 10 16.0934 0 0
6:55 am 06:55 Cloudy 39 4.1 30 -0.9 70 70 E 7 11 30.43 1030 10 16.0934 0 0
7:15 am 07:15 Cloudy 40 4.2 31 -0.7 71 71 E 9 15 30.43 1030 10 16.0934 0 0
7:35 am 07:35 Cloudy 39 4 31 -0.5 73 73 E 9 15 30.43 1030 10 16.0934 0 0
7:55 am 07:55 Cloudy 39 3.8 30 -1.3 70 70 E 10 17 30.45 1031 10 16.0934 0 0
8:15 am 08:15 Cloudy 39 3.8 29 -1.8 67 67 E 9 15 30.45 1031 10 16.0934 0 0
8:35 am 08:35 Cloudy 39 4 29 -1.8 66 66 ESE 12 19 30.45 1031 10 16.0934 0 0
8:55 am 08:55 Cloudy 39 4 28 -2.5 63 63 ESE 8 13 30.45 1031 10 16.0934 0 0
9:15 am 09:15 Cloudy 40 4.2 28 -2.4 63 63 ESE 7 11 30.44 1031 10 16.0934 0 0
9:35 am 09:35 Cloudy 40 4.4 29 -1.7 65 65 ESE 8 13 30.42 1030 10 16.0934 0 0
9:55 am 09:55 Cloudy 40 4.5 27 -2.6 60 60 SE 9 15 30.42 1030 10 16.0934 0 0
10:15 am 10:15 Cloudy 40 4.7 28 -2.4 60 60 SE 9 15 30.43 1031 10 16.0934 0 0
10:35 am 10:35 Cloudy 41 4.9 28 -2.1 61 61 SE 9 15 30.42 1030 10 16.0934 0 0
10:55 am 10:55 Cloudy 41 5.1 28 -2.2 60 60 SE 10 17 30.42 1030 10 16.0934 0 0
11:15 am 11:15 Cloudy 41 5.1 28 -2.2 60 60 SE 9 15 30.42 1030 10 16.0934 0 0
11:35 am 11:35 Cloudy 42 5.5 29 -1.9 59 59 SE 9 15 30.4 1030 10 16.0934 0 0
11:55 am 11:55 Cloudy 42 5.6 29 -1.6 60 60 SE 8 13 30.39 1029 10 16.0934 0 0
12:15 pm 12:15 Cloudy 42 5.8 29 -1.6 59 59 SE 9 15 30.39 1029 10 16.0934 0 0
12:35 pm 12:35 Cloudy 43 6 29 -1.4 59 59 SSE 7 11 30.38 1029 10 16.0934 0 0
12:55 pm 12:55 Cloudy 43 6.2 29 -1.4 59 59 SE 9 15 30.38 1029 10 16.0934 0 0
1:15 pm 13:15 Cloudy 43 6.3 30 -0.9 60 60 SE 8 13 30.37 1028 10 16.0934 0 0
1:35 pm 13:35 Cloudy 43 6.3 30 -1.3 59 59 SE 10 17 30.36 1028 10 16.0934 0 0
1:55 pm 13:55 Cloudy 44 6.4 30 -1 59 59 SSE 8 13 30.35 1028 10 16.0934 0 0
2:15 pm 14:15 Cloudy 43 6.2 29 -1.4 59 59 SE 9 15 30.34 1027 10 16.0934 0 0
2:35 pm 14:35 Cloudy 43 6 30 -1.3 60 60 ESE 8 13 30.33 1027 10 16.0934 0 0
2:55 pm 14:55 Cloudy 44 6.4 30 -1.2 59 59 SE 8 13 30.33 1027 10 16.0934 0 0
3:15 pm 15:15 Cloudy 43 6.3 30 -1.2 59 59 SE 12 19 30.32 1027 10 16.0934 0 0
3:35 pm 15:35 Cloudy 43 6.3 29 -1.6 57 57 SE 10 17 30.31 1026 10 16.0934 0 0
3:55 pm 15:55 Cloudy 44 6.5 30 -1.3 58 58 ESE 9 15 30.3 1026 10 16.0934 0 0
4:15 pm 16:15 Cloudy 44 6.5 29 -1.7 56 56 SE 8 13 30.29 1026 10 16.0934 0 0
4:35 pm 16:35 Cloudy 44 6.4 29 -1.6 57 57 SSE 12 19 30.29 1026 10 16.0934 0 0
4:55 pm 16:55 Cloudy 44 6.4 30 -1.1 59 59 ESE 8 13 30.29 1026 10 16.0934 0 0
5:15 pm 17:15 Cloudy 44 6.4 29 -1.7 57 57 ESE 8 13 30.29 1026 10 16.0934 0 0
5:35 pm 17:35 Cloudy 44 6.5 29 -1.5 57 57 ESE 7 11 30.27 1025 10 16.0934 0 0
5:55 pm 17:55 Cloudy 44 6.5 30 -0.9 60 60 SE 7 11 30.27 1025 10 16.0934 0 0
6:15 pm 18:15 Cloudy 43 6.3 31 -0.3 63 63 SE 7 11 30.27 1025 10 16.0934 0 0
6:35 pm 18:35 Cloudy 43 6.2 31 -0.4 63 63 SSE 7 11 30.26 1025 10 16.0934 0 0
6:55 pm 18:55 Cloudy 43 5.9 33 0.5 69 69 S 10 17 30.26 1025 10 16.0934 0 0
7:15 pm 19:15 Cloudy 42 5.5 33 0.5 71 71 S 8 13 30.25 1025 10 16.0934 0 0
7:35 pm 19:35 Cloudy 42 5.5 33 0.4 70 70 SSE 8 13 30.25 1025 10 16.0934 0 0
7:55 pm 19:55 Cloudy 42 5.5 33 0.3 69 69 SSE 8 13 30.24 1024 10 16.0934 0 0
8:15 pm 20:15 Cloudy 41 5.2 33 0.5 72 72 S 8 13 30.25 1024 10 16.0934 0 0
8:35 pm 20:35 Cloudy 41 5 33 0.6 73 73 S 8 13 30.26 1025 10 16.0934 0 0
8:55 pm 20:55 Cloudy 40 4.7 35 1.4 79 79 S 9 15 30.27 1025 10 16.0934 0 0
9:15 pm 21:15 Cloudy 40 4.4 35 1.5 82 82 SSW 8 13 30.28 1026 10 16.0934 0 0
9:35 pm 21:35 Cloudy 40 4.2 35 1.5 83 83 S 6 9 30.3 1026 10 16.0934 0 0
9:55 pm 21:55 Cloudy with Drizzle 39 4 35 1.6 85 85 S 6 9 30.3 1026 10 16.0934 0 0
10:15 pm 22:15 Cloudy with Drizzle 39 3.9 35 1.7 86 86 S 5 7 30.3 1026 10 16.0934 0 0
10:35 pm 22:35 Cloudy 39 3.7 35 1.8 88 88 S 5 7 30.3 1026 10 16.0934 0 0
10:55 pm 22:55 Cloudy 39 3.8 36 2 88 88 S 5 7 30.3 1026 10 16.0934 0 0
11:15 pm 23:15 Cloudy 39 3.7 35 1.9 88 88 S 5 7 30.3 1026 10 16.0934 0 0
11:35 pm 23:35 Cloudy 39 3.7 35 1.8 88 88 SSE 3 6 30.29 1026 10 16.0934 0 0
11:55 pm 23:55 Cloudy 39 3.7 35 1.8 88 88 S 3 6 30.29 1026 10 16.0934 0 0

Powered by AerisWeather